CZ-6A DEB, 56637

Orbit data source: Space-Track

CZ-6A DEB, 56637 is space debris in SSO originally from a launch on Fri, 11 Nov 2022 UTC launched from the Taiyaun Space Center, China (TSC). Debris objects in space refer to the collection of defunct objects orbiting the Earth. Examples of debris include non-operational satellites, rocket bodies, and fragments generated from explosions, collisions, or faulty payload assembly.

Loading next visibility...
Identifier
56637, 2022-151AFM
Orbit
SSO
Country
Flag of CNCN / PRC
Related business
Manufacturer
SAST
Mission
Spacecraft
Bus & Motor
Unknown
Mass
Unknown
Launch date (UTC)
2022-11-11 (4 years ago)
Launch vehicle
Unknown
Launch site
Taiyaun Space Center, China (TSC)
Object type
Payload
Rocket body
Debris
Shape & HBR
Unknown shape, 0.1 m
Radar Cross Section
Medium (>0.1 m² and <1 m²)

Expand to show TLE details & history
Last TLE update: 2 days ago

TLE from 2 days ago
0 CZ-6A DEB
1 56637U 22151AFM 26264.20862683  .00003936  00000-0  77387-3 0  9999
2 56637  98.8586   0.0279 0106546  74.8463 286.4490 14.59674041191123
Epoch: 2026-09-21T05:00Z
TLE epoch observation values (Epoch: 2026-09-21T05:00:25.358Z)
Latitude
-0.00002°
Longitude
-75.16951°
Altitude
676.591 km
Speed
7.529 km/s
True Right ascension
00h 00m 06s
True Declination
0° 00' 00"
Sunlit
Object was in full shadow at epoch
Visualization orbit readout
Latitude
Unknown
Longitude
Unknown
Altitude
Unknown
Speed
Unknown
Apparent Right ascension
Unknown
Apparent Declination
Unknown
Sunlit
N/A
Visualization observer readout
Local Sidereal Time
11:02:32
Azimuth
Unknown
Elevation
Unknown
Doppler factor
Unknown
Orbital elements
Apogee altitude
766.662 km
Perigee altitude
616.017 km
Semi-major axis
7,069.476 km
Eccentricity
0.01065
Inclination
98.8586°
RAAN
0.0279°
Arg. of periapsis
74.8463°
True anomaly
285.27369°
Mean anomaly
286.449°
Eccentric anomaly
285.86178°
Mean motion
3.65142 °/min
Orbital period
98.59 mins
BSTAR
0.00077387
Loading maneuver chart data...
Computing Atmospheric mass density...
Loading historical data...
Loading historical data...
Loading historical data...
Loading historical data...
Loading historical data...
Loading historical data...
Loading historical data...

Documentation

Showing up to 5 results
|